1499281200.3,42093,17.75,74274.5,4.81,-8.55,-6.43,0,*75
1499281201.51,42094,17.75,74274.3,4.81,-8.33,-6.27,0,*70
1499281202.74,42095,17.75,74272.0,4.79,-8.03,-6.13,0,*72
1499281203.99,42096,17.75,74260.8,4.81,-7.73,-5.89,0,*7E
1499281205.17,42097,17.75,74264.3,4.81,-7.53,-6.05,0,*7A
1499281206.39,42098,17.75,74274.8,4.81,-7.35,-6.31,0,*72
1499281207.6,42099,17.75,74280.0,4.79,-7.23,-6.69,0,*7E
1499281208.79,42100,17.75,74284.0,4.81,-7.15,-7.11,0,*73
1499281210.03,42101,17.75,74284.0,4.81,-7.05,-7.73,0,*77
1499281211.25,42102,17.75,74284.8,4.81,-7.05,-8.45,0,*7E
1499281212.51,42103,17.75,74280.0,4.79,-7.05,-9.15,0,*7C
1499281213.71,42104,17.75,74280.8,4.85,-7.19,-10.01,0,*48
1499281214.96,42105,17.75,74282.8,4.85,-7.31,-10.63,0,*47
1499281216.2,42106,17.75,74278.5,4.81,-7.61,-11.51,0,*45
1499281217.47,42107,17.75,74276.8,4.79,-7.91,-12.15,0,*4F
1499281218.68,42108,17.75,74278.0,4.81,-8.33,-12.75,0,*46
1499281219.91,42109,17.75,74276.8,4.79,-8.85,-13.15,0,*4A
1499281221.12,42110,17.75,74280.0,4.79,-9.27,-13.43,0,*48
1499281222.33,42111,17.75,74284.5,4.81,-9.83,-13.69,0,*48
1499281223.55,42112,17.75,74280.3,4.81,-10.49,-13.97,0,*74
1499281224.8,42113,17.75,74280.3,4.79,-11.07,-14.11,0,*70
1499281226.08,42114,17.75,74282.3,4.79,-11.63,-14.01,0,*74
1499281227.34,42115,17.75,74288.8,4.79,-12.29,-13.97,0,*70
1499281228.56,42116,17.75,74290.0,4.79,-12.89,-13.73,0,*73
1499281229.81,42117,17.75,74290.0,4.79,-13.33,-13.47,0,*75
1499281231.08,42118,17.75,74282.0,4.79,-13.87,-13.29,0,*7D
1499281232.31,42119,17.75,74278.8,4.79,-14.29,-12.97,0,*7B
1499281233.56,42120,17.75,74280.5,4.77,-14.75,-12.65,0,*7B
1499281234.75,42121,17.75,74276.0,4.77,-15.11,-12.47,0,*79
1499281236.01,42122,17.75,74278.8,4.77,-15.35,-12.07,0,*78
1499281237.23,42123,17.75,74278.5,4.77,-15.63,-11.77,0,*7E
1499281238.45,42124,17.75,74278.3,4.77,-15.81,-11.23,0,*74
1499281239.67,42125,17.75,74278.8,4.75,-15.99,-10.93,0,*74
1499281240.91,42126,17.75,74284.8,4.77,-16.03,-10.41,0,*7A
1499281242.16,42127,17.75,74290.5,4.75,-16.13,-9.93,0,*4F
1499281243.38,42128,17.81,74298.5,4.77,-16.09,-9.27,0,*46
1499281244.58,42129,17.75,74288.5,4.77,-16.03,-8.85,0,*44
1499281245.8,42130,17.75,74292.3,4.75,-15.95,-8.17,0,*49
1499281247.05,42131,17.75,74288.3,4.75,-15.67,-7.61,0,*4B
1499281248.27,42132,17.75,74284.8,4.75,-15.29,-6.89,0,*45
1499281249.48,42133,17.75,74276.3,4.77,-15.07,-6.23,0,*4A
1499281250.7,42134,17.75,74278.5,4.79,-14.61,-5.43,0,*47
1499281251.93,42135,17.75,74268.8,4.77,-14.23,-4.81,0,*41
1499281253.13,42136,17.75,74274.5,4.77,-13.73,-4.05,0,*4C
1499281254.33,42137,17.75,74260.0,4.77,-13.19,-3.27,0,*46
1499281255.57,42138,17.75,74258.0,4.77,-12.61,-2.59,0,*4F
1499281256.84,42139,17.75,74262.8,4.75,-11.81,-1.87,0,*41
1499281258.06,42140,17.75,74266.0,4.75,-11.11,-1.25,0,*4E
1499281259.28,42141,17.75,74272.0,4.75,-10.31,-0.77,0,*7A
1499281260.5,42142,17.75,74278.5,4.77,-9.57,-0.27,0,*46
1499281261.7,42143,17.75,74280.5,4.77,-8.75,-0.15,0,*47
1499281262.9,42144,17.75,74288.5,4.75,-8.17,-0.07,0,*75
1499281264.14,42145,17.75,74288.5,4.75,-7.61,-0.03,0,*7E
1499281265.37,42146,17.75,74288.5,4.75,-6.93,-0.07,0,*75
1499281266.59,42147,17.75,74280.8,4.75,-6.35,-0.15,0,*4B
1499281267.83,42148,17.75,74284.3,4.75,-5.65,-0.37,0,*42
1499281269.07,42149,17.75,74280.8,4.77,-5.07,-0.85,0,*4C
1499281270.26,42150,17.75,74282.5,4.77,-4.65,-1.33,0,*7D
1499281271.47,42151,17.75,74272.8,4.77,-4.17,-1.95,0,*75
1499281272.7,42152,17.75,74270.5,4.77,-3.79,-2.63,0,*73
1499281273.93,42153,17.75,74270.3,4.77,-3.51,-3.51,0,*78
1499281275.18,42154,17.75,74272.0,4.75,-3.51,-4.41,0,*7B
1499281276.4,42155,17.75,74278.0,4.77,-3.51,-5.39,0,*76
1499281277.61,42156,17.75,74276.8,4.77,-3.71,-6.09,0,*77
1499281278.85,42157,17.75,74278.0,4.75,-4.05,-6.97,0,*77
1499281280.07,42158,17.75,74282.5,4.77,-4.25,-7.69,0,*78
1499281281.26,42159,17.75,74282.0,4.77,-4.61,-8.37,0,*7D
1499281282.47,42160,17.75,74286.8,4.77,-4.89,-8.75,0,*77
1499281283.68,42161,17.75,74288.5,4.77,-5.27,-9.19,0,*78
1499281284.92,42162,17.75,74288.3,4.77,-5.61,-9.41,0,*74
1499281286.14,42163,17.75,74288.8,4.77,-6.05,-9.53,0,*77
1499281287.36,42164,17.75,74286.0,4.77,-6.59,-9.53,0,*79
1499281288.58,42165,17.75,74286.5,4.77,-7.19,-9.57,0,*79
1499281289.82,42166,17.75,74286.3,4.77,-7.65,-9.45,0,*72
1499281291.04,42167,17.75,74284.5,4.77,-8.07,-9.19,0,*71
1499281292.23,42168,17.75,74286.3,4.77,-8.45,-8.85,0,*7C
1499281293.43,42169,17.75,74284.0,4.77,-8.71,-8.45,0,*76
1499281294.65,42170,17.75,74284.5,4.77,-9.01,-8.11,0,*79
1499281295.87,42171,17.75,74284.0,4.77,-9.27,-7.77,0,*73
1499281297.12,42172,17.75,74282.0,4.77,-9.41,-7.31,0,*72
1499281298.36,42173,17.75,74282.3,4.77,-9.53,-6.97,0,*7D
1499281299.57,42174,17.75,74282.3,4.77,-9.53,-6.73,0,*70
1499281300.78,42175,17.75,74284.5,4.77,-9.53,-6.51,0,*71
1499281302.03,42176,17.75,74282.3,4.79,-9.41,-6.35,0,*7D
1499281303.29,42177,17.75,74282.8,4.75,-9.49,-6.27,0,*7B
1499281304.55,42178,17.75,74282.8,4.75,-9.49,-6.23,0,*70
1499281305.78,42179,17.75,74278.8,4.75,-9.45,-6.13,0,*7E
1499281307.02,42180,17.75,74278.3,4.75,-9.49,-6.09,0,*7F
1499281308.25,42181,17.75,74278.8,4.75,-9.57,-6.09,0,*71
1499281309.47,42182,17.75,74274.8,4.77,-9.75,-5.81,0,*73
1499281310.7,42183,17.75,74274.0,4.75,-9.93,-5.77,0,*71
1499281311.92,42184,17.75,74276.8,4.77,-10.01,-5.61,0,*40
1499281313.11,42185,17.75,74282.8,4.77,-10.09,-5.43,0,*49
1499281314.34,42186,17.75,74276.3,4.77,-10.15,-5.19,0,*48
1499281315.56,42187,17.75,74280.3,4.75,-10.31,-4.99,0,*44
1499281316.76,42188,17.75,74278.5,4.77,-10.23,-4.53,0,*4C
1499281317.98,42189,17.75,74282.5,4.75,-10.19,-4.09,0,*49
1499281319.18,42190,17.75,74278.8,4.77,-10.09,-3.63,0,*49
1499281320.4,42191,17.75,74280.5,4.75,-9.93,-3.27,0,*71
1499281321.59,42192,17.75,74280.5,4.77,-9.71,-2.95,0,*74
1499281322.83,42193,17.75,74282.5,4.75,-9.49,-2.79,0,*7E
1499281324.1,42194,17.75,74286.5,4.75,-9.37,-2.67,0,*7F
1499281325.35,42195,17.75,74284.0,4.75,-9.19,-2.55,0,*73
1499281326.59,42196,17.75,74282.0,4.75,-8.97,-2.51,0,*73
1499281327.81,42197,17.75,74282.8,4.75,-8.75,-2.39,0,*70
1499281329.05,42198,17.75,74282.0,4.75,-8.51,-2.39,0,*79
1499281330.27,42199,17.75,74286.0,4.75,-8.25,-2.39,0,*7B
1499281331.54,42200,17.75,74282.5,4.75,-7.95,-2.51,0,*72
1499281332.81,42201,17.75,74286.8,4.75,-7.61,-2.63,0,*79
1499281334.04,42202,17.75,74286.0,4.75,-7.35,-2.91,0,*76
1499281335.28,42203,17.75,74284.5,4.75,-7.01,-3.15,0,*7D
1499281336.47,42204,17.75,74288.3,4.77,-6.81,-3.39,0,*7F
1499281337.69,42205,17.75,74288.8,4.75,-6.43,-3.75,0,*7A
1499281338.9,42206,17.75,74292.3,4.73,-6.27,-4.09,0,*71
1499281340.1,42207,17.75,74294.3,4.73,-6.27,-4.45,0,*78
1499281341.35,42208,17.75,74294.0,4.77,-6.19,-4.89,0,*7E
1499281342.57,42209,17.75,74294.8,4.75,-6.13,-5.47,0,*74
1499281343.83,42210,17.75,74294.8,4.75,-6.23,-5.89,0,*7D
1499281345.05,42211,17.75,74288.3,4.75,-6.35,-6.35,0,*7F
1499281346.3,42212,17.75,74288.3,4.75,-6.51,-6.63,0,*7D
1499281347.53,42213,17.75,74290.3,4.75,-6.69,-6.93,0,*78
1499281348.75,42214,17.75,74288.0,4.73,-6.93,-7.15,0,*73
1499281349.94,42215,17.75,74290.3,4.73,-7.15,-7.15,0,*7D
1499281351.16,42216,17.75,74290.0,4.73,-7.43,-7.15,0,*7D
1499281352.35,42217,17.75,74290.3,4.73,-7.83,-7.15,0,*70
1499281353.59,42218,17.75,74294.5,4.73,-8.11,-6.93,0,*74
1499281354.77,42219,17.75,74292.0,4.73,-8.41,-6.69,0,*75
1499281355.96,42220,17.75,74294.5,4.73,-8.67,-6.43,0,*73
1499281357.15,42221,17.75,74286.0,4.73,-8.93,-6.13,0,*7C
1499281358.37,42222,17.75,74288.8,4.73,-9.19,-5.73,0,*79
1499281359.58,42223,17.75,74286.3,4.73,-9.45,-5.35,0,*73
1499281360.8,42224,17.75,74286.5,4.73,-9.71,-4.81,0,*7D
1499281361.99,42225,17.75,74286.8,4.73,-9.79,-4.29,0,*76
1499281363.17,42226,17.75,74284.0,4.73,-9.93,-3.83,0,*76
1499281364.37,42227,17.75,74288.8,4.75,-9.89,-3.31,0,*73
1499281365.56,42228,17.75,74286.8,4.73,-9.75,-2.79,0,*74
1499281366.77,42229,17.75,74284.8,4.73,-9.49,-2.39,0,*7E
1499281367.98,42230,17.75,74278.0,4.73,-9.19,-1.91,0,*72
1499281369.22,42231,17.75,74282.0,4.73,-8.81,-1.35,0,*7D
1499281370.43,42232,17.75,74280.0,4.73,-8.29,-1.05,0,*7F
1499281371.62,42233,17.75,74274.5,4.73,-7.83,-0.77,0,*45
1499281372.82,42234,17.75,74274.0,4.73,-7.31,-0.65,0,*48
1499281374.0,42235,17.75,74268.8,4.73,-6.89,-0.61,0,*4F
1499281375.18,42236,17.75,74266.3,4.73,-6.39,-0.61,0,*47
1499281376.36,42237,17.75,74268.8,4.73,-6.09,-0.65,0,*41
1499281377.55,42238,17.75,74272.5,4.73,-5.47,-0.77,0,*44
1499281378.78,42239,17.75,74272.0,4.73,-5.11,-0.93,0,*4C
1499281380.0,42240,17.75,74278.5,4.73,-4.69,-1.13,0,*75
1499281381.19,42241,17.75,74282.5,4.73,-4.17,-1.51,0,*7B
1499281382.44,42242,17.75,74284.5,4.75,-3.79,-1.91,0,*7D
1499281383.71,42243,17.75,74286.5,4.75,-3.67,-2.55,0,*78
1499281384.94,42244,17.75,74288.3,4.75,-3.67,-3.31,0,*7C
1499281386.15,42245,17.75,74290.8,4.73,-3.67,-4.09,0,*77
1499281387.4,42246,17.75,74294.8,4.75,-3.75,-4.93,0,*72
1499281388.63,42247,17.75,74296.8,4.77,-3.91,-5.69,0,*7F
1499281389.82,42248,17.75,74294.0,4.73,-4.29,-6.55,0,*7C
1499281391.01,42249,17.75,74298.3,4.73,-4.65,-7.19,0,*7C
1499281392.21,42250,17.75,74302.8,4.73,-4.93,-7.83,0,*7E
1499281393.39,42251,17.75,74300.3,4.73,-5.43,-8.29,0,*7C
1499281394.58,42252,17.75,74304.5,4.73,-6.01,-8.75,0,*73
1499281395.77,42253,17.75,74304.8,4.73,-6.43,-9.05,0,*72
1499281397.0,42254,17.75,74298.8,4.75,-7.01,-9.19,0,*79
1499281398.24,42255,17.75,74300.0,4.75,-7.61,-9.31,0,*74
1499281399.48,42256,17.75,74296.8,4.75,-8.11,-9.23,0,*7C
1499281400.69,42257,17.75,74298.5,4.73,-8.81,-9.23,0,*72
1499281401.87,42258,17.75,74298.8,4.73,-9.31,-9.19,0,*7E
1499281403.06,42259,17.75,74288.8,4.73,-9.75,-9.05,0,*72
1499281404.26,42260,17.75,74294.3,4.73,-10.15,-8.89,0,*43
1499281405.45,42261,17.75,74292.8,4.73,-10.57,-8.75,0,*47
1499281406.66,42262,17.75,74294.8,4.73,-10.89,-8.51,0,*41
1499281407.85,42263,17.75,74292.5,4.73,-11.11,-8.25,0,*43
1499281409.1,42264,17.75,74290.0,4.73,-11.29,-7.95,0,*4B
1499281410.32,42265,17.75,74294.5,4.73,-11.41,-7.61,0,*4F
1499281411.54,42266,17.75,74288.0,4.73,-11.51,-7.23,0,*4B
1499281412.78,42267,17.75,74288.0,4.73,-11.55,-7.05,0,*4A
1499281414.0,42268,17.75,74290.0,4.73,-11.67,-6.77,0,*40
1499281415.22,42269,17.75,74288.8,4.73,-11.81,-6.43,0,*4E
1499281416.43,42270,17.75,74284.0,4.73,-11.81,-6.13,0,*43
1499281417.67,42271,17.75,74282.0,4.73,-11.81,-5.77,0,*43
1499281418.89,42272,17.75,74282.3,4.73,-11.59,-5.47,0,*46
1499281420.11,42273,17.75,74278.3,4.73,-11.41,-4.93,0,*46
1499281421.3,42274,17.75,74282.0,4.73,-11.23,-4.41,0,*4A
1499281422.53,42275,17.75,74282.5,4.75,-11.01,-3.83,0,*44
1499281423.75,42276,17.75,74278.5,4.73,-10.75,-3.27,0,*4D
1499281424.94,42277,17.75,74274.0,4.73,-10.27,-2.87,0,*40
1499281426.12,42278,17.75,74270.5,4.73,-9.89,-2.31,0,*7E
1499281427.36,42279,17.75,74266.3,4.73,-9.45,-1.99,0,*7E
1499281428.61,42280,17.75,74270.5,4.73,-9.11,-1.91,0,*71
1499281429.83,42281,17.75,74264.3,4.73,-8.41,-1.87,0,*73
1499281431.04,42282,17.75,74272.3,4.73,-7.95,-2.15,0,*7E
1499281432.28,42283,17.75,74272.5,4.75,-7.49,-2.55,0,*7C
1499281433.51,42284,17.75,74268.8,4.75,-7.31,-3.15,0,*71
1499281434.73,42285,17.75,74270.3,4.75,-7.23,-3.75,0,*75
1499281435.96,42286,17.75,74272.3,4.75,-7.31,-4.33,0,*70
1499281437.23,42287,17.75,74278.8,4.75,-7.57,-4.93,0,*7B
1499281438.47,42288,17.75,74270.8,4.75,-7.99,-5.47,0,*7E
1499281439.69,42289,17.75,74270.5,4.77,-8.33,-5.61,0,*76
1499281440.93,42290,17.75,74272.3,4.75,-8.75,-5.89,0,*78
1499281442.14,42291,17.75,74280.0,4.75,-9.19,-5.97,0,*7D
1499281443.38,42292,17.75,74278.0,4.77,-9.53,-5.93,0,*76
1499281444.57,42293,17.75,74276.3,4.77,-9.97,-5.97,0,*7B
1499281445.81,42294,17.75,74276.0,4.75,-10.41,-6.01,0,*41
1499281447.05,42295,17.75,74278.8,4.75,-10.71,-5.97,0,*4F
1499281448.31,42296,17.75,74280.0,4.75,-11.01,-5.89,0,*45
1499281449.57,42297,17.75,74270.3,4.75,-11.37,-5.77,0,*40
1499281450.82,42298,17.75,74264.8,4.77,-11.67,-5.69,0,*47
1499281452.06,42299,17.75,74256.0,4.77,-11.81,-5.73,0,*45
1499281453.33,42300,17.75,74254.0,4.75,-11.97,-5.73,0,*41
1499281454.58,42301,17.75,74252.8,4.77,-12.15,-5.69,0,*40
1499281455.82,42302,17.75,74254.3,4.75,-12.25,-5.73,0,*49
1499281457.06,42303,17.75,74252.8,4.75,-12.39,-5.73,0,*45
1499281458.33,42304,17.75,74252.3,4.75,-12.53,-5.73,0,*4E
1499281459.61,42305,17.75,74250.5,4.75,-12.53,-5.61,0,*4C
1499281460.84,42306,17.75,74256.5,4.77,-12.53,-5.51,0,*4E
1499281462.09,42307,17.75,74260.0,4.75,-12.65,-5.47,0,*4F
1499281463.33,42308,17.75,74262.5,4.75,-12.65,-5.35,0,*45
1499281464.6,42309,17.75,74258.8,4.75,-12.57,-5.19,0,*4B
1499281465.85,42310,17.75,74258.0,4.75,-12.43,-4.85,0,*42
1499281467.1,42311,17.75,74258.8,4.75,-12.11,-4.53,0,*4F
1499281468.34,42312,17.75,74262.8,4.75,-11.81,-4.33,0,*40
1499281469.56,42313,17.75,74266.5,4.73,-11.59,-4.09,0,*4B
1499281470.78,42314,17.75,74264.8,4.73,-11.29,-3.83,0,*4E
1499281471.99,42315,17.75,74266.0,4.73,-11.01,-3.63,0,*4B
1499281473.23,42316,17.75,74272.0,4.73,-10.75,-3.51,0,*4B
1499281474.45,42317,17.75,74274.0,4.75,-10.31,-3.39,0,*42
1499281475.67,42318,17.75,74274.0,4.75,-10.15,-3.31,0,*43
1499281476.85,42319,17.75,74278.3,4.77,-9.97,-3.39,0,*7A
1499281478.09,42320,17.75,74282.3,4.75,-9.79,-3.43,0,*7F
1499281479.34,42321,17.75,74282.5,4.75,-9.61,-3.43,0,*77
1499281480.55,42322,17.75,74282.8,4.73,-9.61,-3.31,0,*77
1499281481.75,42323,17.75,74286.3,4.73,-9.49,-3.31,0,*7C
1499281482.97,42324,17.75,74284.8,4.73,-9.37,-3.27,0,*75
1499281484.19,42325,17.75,74286.0,4.75,-9.23,-3.27,0,*77
1499281485.43,42326,17.75,74286.0,4.75,-9.11,-3.31,0,*72
1499281486.63,42327,17.75,74286.0,4.73,-8.89,-3.27,0,*72
1499281487.82,42328,17.75,74286.3,4.73,-8.63,-3.27,0,*79
1499281489.04,42329,17.75,74284.3,4.73,-8.51,-3.27,0,*79
1499281490.23,42330,17.75,74286.5,4.73,-8.25,-3.27,0,*72
1499281491.47,42331,17.75,74288.0,4.75,-7.99,-3.31,0,*7A
1499281492.71,42332,17.75,74282.8,4.75,-7.73,-3.31,0,*7D
1499281493.92,42333,17.75,74290.0,4.73,-7.73,-3.39,0,*72
1499281495.18,42334,17.75,74286.5,4.75,-7.61,-3.43,0,*7D
1499281496.45,42335,17.75,74290.8,4.75,-7.57,-3.43,0,*79
1499281497.71,42336,17.75,74294.8,4.75,-7.43,-3.55,0,*78
1499281498.94,42337,17.75,74294.3,4.73,-7.35,-3.55,0,*7E
1499281500.19,42338,17.75,74294.5,4.75,-7.43,-3.67,0,*77
1499281501.45,42339,17.75,74292.8,4.75,-7.43,-3.67,0,*76
1499281502.71,42340,17.75,74292.0,4.75,-7.35,-3.67,0,*79
1499281503.96,42341,17.75,74294.5,4.75,-7.35,-3.67,0,*78
1499281505.18,42342,17.75,74290.3,4.73,-7.43,-3.75,0,*7F
1499281506.39,42343,17.75,74294.5,4.73,-7.35,-3.79,0,*73
1499281507.61,42344,17.75,74292.5,4.73,-7.43,-3.75,0,*79
1499281508.82,42345,17.75,74294.0,4.73,-7.43,-3.75,0,*78
1499281510.04,42346,17.75,74290.8,4.73,-7.43,-3.91,0,*71
1499281511.25,42347,17.75,74290.3,4.73,-7.43,-3.91,0,*70
1499281512.47,42348,17.75,74288.0,4.73,-7.43,-3.91,0,*7F
1499281513.68,42349,17.75,74286.5,4.73,-7.43,-3.95,0,*7A
1499281514.89,42350,17.75,74290.3,4.73,-7.43,-4.05,0,*7C
1499281516.11,42351,17.75,74280.8,4.73,-7.43,-4.05,0,*7D
1499281517.32,42352,17.75,74284.5,4.73,-7.43,-4.17,0,*7D
1499281518.5,42353,17.75,74282.0,4.73,-7.49,-4.17,0,*76
1499281519.68,42354,17.75,74282.0,4.73,-7.49,-4.29,0,*7C
1499281520.87,42355,17.75,74282.3,4.73,-7.49,-4.41,0,*73
1499281522.08,42356,17.75,74284.3,4.73,-7.43,-4.41,0,*7A
1499281523.29,42357,17.75,74290.3,4.73,-7.43,-4.45,0,*7F
1499281524.51,42358,17.75,74292.0,4.73,-7.35,-4.53,0,*76
1499281525.7,42359,17.75,74292.5,4.73,-7.23,-4.53,0,*70
1499281526.89,42360,17.75,74290.8,4.73,-7.23,-4.57,0,*7E
1499281528.09,42361,17.75,74294.5,4.73,-7.19,-4.53,0,*72
1499281529.31,42362,17.75,74296.5,4.73,-7.15,-4.73,0,*7F
1499281530.52,42363,17.75,74290.5,4.73,-7.19,-4.81,0,*7F
1499281531.74,42364,17.75,74282.8,4.73,-7.15,-4.81,0,*74
1499281532.98,42365,17.75,74280.5,4.73,-7.01,-4.73,0,*7D
1499281534.22,42366,17.75,74280.3,4.73,-7.01,-4.81,0,*73
1499281535.48,42367,17.75,74282.8,4.75,-7.01,-4.93,0,*77
1499281536.72,42368,17.75,74276.8,4.73,-7.01,-4.93,0,*7E
1499281538.0,42369,17.75,74276.0,4.75,-6.93,-5.07,0,*7F
1499281539.27,42370,17.75,74280.8,4.75,-6.93,-5.19,0,*78
1499281540.54,42371,17.75,74280.3,4.75,-6.93,-5.31,0,*73
1499281541.78,42372,17.75,74276.8,4.75,-6.93,-5.35,0,*74
1499281543.0,42373,17.75,74276.5,4.75,-6.89,-5.47,0,*7B
1499281544.21,42374,17.75,74276.5,4.75,-6.89,-5.51,0,*7B
1499281545.41,42375,17.75,74274.5,4.77,-6.89,-5.55,0,*7C
1499281546.66,42376,17.75,74276.0,4.75,-6.81,-5.61,0,*72
1499281547.9,42377,17.75,74280.8,4.75,-6.81,-5.65,0,*77
1499281549.15,42378,17.75,74282.8,4.75,-6.77,-5.65,0,*71
1499281550.39,42379,17.75,74286.8,4.75,-6.77,-5.65,0,*70
1499281551.63,42380,17.75,74284.0,4.75,-6.81,-5.73,0,*78
1499281552.87,42381,17.75,74286.8,4.75,-6.81,-5.77,0,*7D
1499281554.12,42382,17.75,74282.5,4.75,-6.81,-5.85,0,*73
1499281555.37,42383,17.75,74276.0,4.75,-6.77,-5.89,0,*77
1499281556.61,42384,17.75,74278.3,4.75,-6.81,-5.89,0,*79
1499281557.83,42385,17.75,74276.3,4.75,-6.81,-5.97,0,*77
1499281559.04,42386,17.75,74276.0,4.75,-6.81,-5.97,0,*74
1499281560.26,42387,17.75,74280.5,4.75,-6.81,-5.97,0,*75
1499281561.47,42388,17.75,74292.0,4.75,-6.89,-5.97,0,*72
1499281562.71,42389,17.75,74288.0,4.75,-6.77,-5.77,0,*7C
1499281563.95,42390,17.75,74288.3,4.75,-6.77,-5.73,0,*70
1499281565.21,42391,17.75,74286.0,4.75,-6.63,-5.61,0,*77
1499281566.41,42392,17.75,74290.5,4.77,-6.73,-5.55,0,*70
1499281567.61,42393,17.75,74288.3,4.77,-6.77,-5.55,0,*75
1499281568.8,42394,17.75,74290.5,4.77,-6.73,-5.47,0,*75
1499281570.0,42395,17.75,74292.5,4.77,-6.77,-5.43,0,*74
1499281571.22,42396,17.75,74288.3,4.77,-6.77,-5.31,0,*72
1499281572.46,42397,17.75,74288.8,4.75,-6.89,-5.31,0,*70
1499281573.69,42398,17.75,74290.8,4.77,-6.89,-5.07,0,*78
1499281574.9,42399,17.75,74288.5,4.77,-6.85,-4.93,0,*79
1499281576.14,42400,17.75,74286.3,4.75,-6.89,-4.85,0,*77
1499281577.36,42401,17.75,74284.8,4.77,-6.89,-4.69,0,*76
1499281578.56,42402,17.75,74282.5,4.77,-6.89,-4.61,0,*7D
1499281579.75,42403,17.75,74282.0,4.77,-6.85,-4.37,0,*73
1499281580.94,42404,17.75,74278.3,4.77,-6.89,-4.25,0,*7B
1499281582.13,42405,17.75,74282.0,4.77,-6.89,-4.05,0,*78
1499281583.32,42406,17.75,74282.0,4.77,-6.85,-3.79,0,*7B
1499281584.53,42407,17.75,74282.8,4.77,-6.73,-3.71,0,*7B
1499281585.74,42408,17.75,74284.8,4.79,-6.55,-3.23,0,*79
1499281586.96,42409,17.75,74284.3,4.79,-6.43,-3.07,0,*79
1499281588.2,42410,17.75,74288.3,4.79,-6.31,-2.71,0,*74
1499281589.47,42411,17.75,74288.5,4.79,-6.19,-2.47,0,*7A
1499281590.72,42412,17.75,74288.5,4.79,-6.19,-2.15,0,*7E
1499281591.96,42413,17.75,74288.0,4.79,-6.13,-1.91,0,*7A
1499281593.2,42414,17.75,74278.8,4.79,-5.93,-1.55,0,*7E
1499281594.42,42415,17.75,74282.3,4.81,-5.77,-1.21,0,*71
1499281595.65,42416,17.75,74276.3,4.77,-5.61,-0.89,0,*4F
1499281596.84,42417,17.75,74274.8,4.77,-5.43,-0.49,0,*42
1499281598.08,42418,17.75,74274.0,4.79,-5.23,-0.19,0,*40
1499281599.3,42419,17.75,74270.0,4.79,-4.99,0.25,0,*63
1499281600.51,42420,17.75,74270.0,4.79,-4.65,0.43,0,*6A
1499281601.68,42421,17.75,74266.5,4.81,-4.37,0.43,0,*6B
1499281602.94,42422,17.75,74264.8,4.79,-4.01,0.51,0,*69
1499281604.18,42423,17.75,74264.8,4.79,-3.75,0.51,0,*6C
1499281605.41,42424,17.75,74270.5,4.79,-3.35,0.17,0,*6D
1499281606.59,42425,17.75,74270.8,4.81,-3.11,0.05,0,*5E
1499281607.83,42426,17.75,74266.0,4.79,-3.07,-0.23,0,*44
1499281609.04,42427,17.75,74266.8,4.79,-3.07,-0.53,0,*42
1499281610.25,42428,17.75,74268.8,4.79,-3.07,-0.81,0,*42
1499281611.45,42429,17.75,74268.8,4.81,-3.11,-0.97,0,*44
1499281612.69,42430,17.75,74264.8,4.79,-3.11,-1.09,0,*7D
1499281613.91,42431,17.75,74266.3,4.79,-3.23,-1.21,0,*77
1499281615.12,42432,17.75,74268.8,4.81,-3.31,-1.35,0,*75
1499281616.37,42433,17.75,74264.0,4.79,-3.35,-1.35,0,*77
1499281617.59,42434,17.75,74270.5,4.81,-3.35,-1.43,0,*76
1499281618.86,42435,17.75,74270.0,4.79,-3.47,-1.47,0,*71
1499281620.13,42436,17.75,74270.8,4.79,-3.59,-1.47,0,*7D
1499281621.39,42437,17.75,74272.5,4.79,-3.71,-1.47,0,*76
1499281622.64,42438,17.75,74280.8,4.79,-3.83,-1.47,0,*74
1499281623.89,42439,17.75,74282.3,4.79,-3.95,-1.47,0,*72
1499281625.08,42440,17.75,74278.5,4.81,-4.09,-1.55,0,*7A
1499281626.3,42441,17.75,74282.5,4.81,-4.01,-1.59,0,*7F
1499281627.48,42442,17.75,74278.3,4.81,-4.09,-1.59,0,*74
1499281628.7,42443,17.75,74280.0,4.79,-4.13,-1.59,0,*79
1499281629.88,42444,17.75,74286.3,4.81,-4.09,-1.55,0,*7E
1499281631.1,42445,17.75,74288.8,4.81,-4.01,-1.55,0,*77
1499281632.3,42446,17.75,74290.5,4.81,-3.95,-1.67,0,*7F
1499281633.52,42447,17.75,74286.5,4.81,-4.01,-1.67,0,*74
1499281634.72,42448,17.75,74290.5,4.81,-4.09,-1.71,0,*74
1499281635.94,42449,17.75,74288.5,4.79,-4.25,-1.79,0,*74
1499281637.15,42450,17.75,74290.5,4.81,-4.33,-1.83,0,*79
1499281638.36,42451,17.75,74290.3,4.81,-4.45,-1.91,0,*7A
1499281639.57,42452,17.75,74288.0,4.81,-4.37,-1.91,0,*7C
1499281640.78,42453,17.75,74290.8,4.81,-4.37,-1.91,0,*7D
1499281641.99,42454,17.75,74296.0,4.81,-4.25,-1.95,0,*7D
1499281643.24,42455,17.75,74292.8,4.79,-4.33,-2.07,0,*74
1499281644.45,42456,17.75,74296.0,4.79,-4.45,-2.23,0,*70
1499281645.64,42457,17.75,74290.5,4.81,-4.57,-2.35,0,*72
1499281646.82,42458,17.75,74292.0,4.81,-4.61,-2.43,0,*79
1499281648.06,42459,17.75,74290.8,4.79,-4.73,-2.43,0,*7C
1499281649.32,42460,17.75,74288.5,4.79,-4.89,-2.55,0,*74
1499281650.56,42461,17.75,74294.5,4.81,-5.15,-2.59,0,*7A
1499281651.8,42462,17.75,74292.8,4.81,-5.27,-2.55,0,*74
1499281653.04,42463,17.75,74298.3,4.81,-5.27,-2.55,0,*75
1499281654.26,42464,17.75,74288.0,4.81,-5.35,-2.55,0,*71
1499281655.48,42465,17.75,74294.0,4.81,-5.51,-2.55,0,*72
1499281656.72,42466,17.75,74286.8,4.81,-5.65,-2.47,0,*75
1499281657.96,42467,17.75,74292.8,4.81,-5.69,-2.55,0,*7B
1499281659.21,42468,17.75,74282.5,4.81,-5.77,-2.47,0,*78
1499281660.45,42469,17.75,74284.3,4.81,-5.89,-2.47,0,*78
1499281661.66,42470,17.75,74292.8,4.81,-6.01,-2.55,0,*70
1499281662.88,42471,17.75,74294.5,4.81,-6.05,-2.47,0,*76
1499281664.09,42472,17.75,74292.3,4.81,-6.05,-2.47,0,*75
1499281665.34,42473,17.75,74292.5,4.79,-6.13,-2.47,0,*74
1499281666.53,42474,17.75,74294.5,4.85,-6.13,-2.39,0,*79
1499281667.74,42475,17.75,74294.5,4.85,-6.23,-2.39,0,*7B
1499281668.95,42476,17.75,74286.8,4.85,-6.27,-2.39,0,*7C
1499281670.16,42477,17.75,74284.3,4.85,-6.23,-2.39,0,*79
1499281671.37,42478,17.75,74282.8,4.85,-6.23,-2.27,0,*79
1499281672.58,42479,17.75,74280.5,4.85,-6.27,-2.19,0,*71
1499281673.79,42480,17.75,74276.3,4.85,-6.27,-2.27,0,*7A
1499281675.02,42481,17.75,74268.5,4.87,-6.27,-2.15,0,*78
1499281676.26,42482,17.75,74264.0,4.85,-6.27,-2.11,0,*7D
1499281677.5,42483,17.75,74260.8,4.85,-6.27,-2.03,0,*7F
1499281678.74,42484,17.75,74256.5,4.87,-6.13,-2.03,0,*7D
1499281679.98,42485,17.75,74250.5,4.85,-6.23,-1.99,0,*7D
1499281681.22,42486,17.75,74242.3,4.85,-6.27,-1.99,0,*7A
1499281682.46,42487,17.75,74244.0,4.85,-6.23,-1.99,0,*7F
1499281683.67,42488,17.75,74248.3,4.85,-6.13,-1.91,0,*7B
1499281684.89,42489,17.75,74244.0,4.85,-6.13,-1.87,0,*7D
1499281686.08,42490,17.75,74258.5,4.85,-6.13,-1.79,0,*74
1499281687.27,42491,17.75,74262.0,4.85,-6.13,-1.79,0,*75
1499281688.46,42492,17.75,74264.5,4.85,-6.13,-1.75,0,*7A
1499281689.65,42493,17.75,74272.5,4.85,-6.13,-1.79,0,*77
1499281690.84,42494,17.75,74272.0,4.85,-6.09,-1.75,0,*77
1499281692.03,42495,17.75,74270.3,4.85,-6.01,-1.79,0,*72
1499281693.25,42496,17.75,74274.8,4.87,-6.01,-1.75,0,*7F
1499281694.46,42497,17.75,74272.5,4.85,-5.89,-1.75,0,*7F
1499281695.71,42498,17.75,74272.8,4.87,-5.89,-1.67,0,*71
1499281696.93,42499,17.75,74276.5,4.85,-5.77,-1.67,0,*73
1499281698.15,42500,17.75,74280.3,4.85,-5.85,-1.63,0,*7B
1499281699.36,42501,17.75,74282.0,4.85,-5.77,-1.63,0,*77
1499281700.58,42502,17.75,74284.3,4.85,-5.77,-1.67,0,*70
1499281701.79,42503,17.75,74286.0,4.85,-5.65,-1.63,0,*76
1499281703.01,42504,17.75,74288.8,4.85,-5.65,-1.67,0,*75
1499281704.25,42505,17.75,74288.5,4.87,-5.61,-1.63,0,*76
1499281705.44,42506,17.75,74294.0,4.85,-5.51,-1.67,0,*70
1499281706.66,42507,17.75,74292.5,4.87,-5.51,-1.63,0,*77
1499281707.85,42508,17.75,74294.0,4.85,-5.39,-1.67,0,*70
1499281709.04,42509,17.75,74296.0,4.85,-5.39,-1.63,0,*75
1499281710.29,42510,17.75,74292.5,4.87,-5.31,-1.63,0,*77
1499281711.53,42511,17.75,74296.5,4.87,-5.31,-1.67,0,*72
1499281712.74,42512,17.75,74292.3,4.85,-5.11,-1.63,0,*75